• MPC Preparation (Info)

  • MPEC 2011-V35 : 2010 WG3

    The following Minor Planet Electronic Circular may be linked-to from your own Web pages, but must not otherwise be redistributed electronically.

    A form allowing access to any MPEC is at the bottom of this page.


    Read MPEC 2011-V34 Read MPEC 2011-V36


    M.P.E.C. 2011-V35                                Issued 2011 Nov. 10, 11:36 UT
    
         The Minor Planet Electronic Circulars contain information on unusual
             minor planets and routine data on comets.  They are published
       on behalf of Commission 20 of the International Astronomical Union by the
              Minor Planet Center, Smithsonian Astrophysical Observatory,
                              Cambridge, MA 02138, U.S.A.
    
                 Prepared using the Tamkin Foundation Computer Network
    
                                  MPC@CFA.HARVARD.EDU
                URL https://www.minorplanetcenter.net/    ISSN 1523-6714
    
                                       2010 WG3
    
                               Revision to MPEC 2010-W49
    
    Additional Observations:
         K10W03G |C2011 11 08.11069 04 32 05.48 -42 02 03.5          20.3 VoEV035807
         K10W03G |C2011 11 08.11440 04 32 03.78 -42 01 45.7          20.5 VoEV035807
         K10W03G |C2011 11 08.11832 04 32 01.98 -42 01 27.8          20.9 VoEV035807
         K10W03G |C2011 11 10.07333 04 17 58.95 -39 14 32.9          20.0 VoEV035807
         K10W03G |C2011 11 10.07904 04 17 56.41 -39 14 03.5          20.2 VoEV035807
    
    Observer details:
    807 Cerro Tololo.  Observers R. Holmes, T. Linder, V. Hoette.  Measurers
        R. Holmes, T. Linder.  0.41-m f/11 Ritchey-Chretien + CCD.
    
    First and last observations above in comparison with prediction:
    Residuals in seconds of arc (or two decimals in degrees), reference and Delta-T
    111108 807 0.04+ 0.04+    111110 807 0.05+ 0.04+    MPO190037   -0.015 day
    
    Orbital elements:
    2010 WG3                                                 Earth MOID = 0.1124 AU
    Epoch 2011 Aug. 27.0 TT = JDT 2455800.5                 MPC
    M  28.80596              (2000.0)            P               Q
    n   0.97444051     Peri.  217.45309     +0.31121923     +0.92416835
    a   1.0076255      Node    71.64307     -0.80569443     +0.38018088
    e   0.1463664      Incl.   13.49495     -0.50398320     -0.03708586
    P   1.01           H   22.6           G   0.15           U   4
    Residuals in seconds of arc
    101127 703  0.4-  0.1-    101129 204  0.2+  0.2-    101203 704  0.0   0.5+
    101127 703  0.3-  0.4+    101129 A13  0.3-  0.5-    101203 704  0.4-  0.4+
    101127 703  0.5-  0.3-    101129 A13  0.0   0.1+    101206 H21  0.1+  0.2+
    101127 703  0.5-  0.8+    101129 A13  0.1+  0.4-    101206 H21  0.3-  0.2+
    101127 703  0.1-  0.0     101129 A13  0.1+  0.2-    101206 H21  0.1-  0.4+
    101127 703  0.5-  0.4+    101129 A13  0.4-  0.6+    101209 H21  0.0   0.3+
    101127 703  0.3-  0.4-    101129 A13  0.1+  0.1-    101209 H21  0.3+  0.4+
    101127 703  0.1-  0.7+    101201 G96  0.4+  0.3-    101209 H21  0.1+  0.2+
    101127 703  0.1-  0.1+    101201 G96  0.3+  0.2-    101210 695  0.1-  0.3+
    101127 703  0.2-  0.7+    101201 G96  0.3+  0.1-    101210 695  0.1-  0.2+
    101128 G96  0.1+  0.2-    101201 G96  0.0   0.2-    101210 695  0.0   0.1+
    101128 G96  0.1-  0.1-    101202 H21  0.2+  0.2-    101214 H21  0.2+  0.3+
    101128 G96  0.0   0.1+    101202 H21  0.1+  0.1-    101214 H21  0.0   0.4+
    101128 G96  0.2+  0.1-    101202 H21  0.1-  0.0     101214 H21  0.3+  0.3+
    101128 H21  0.0   0.6-    101202 H10  0.2+  0.2+    110105 H21  0.3-  0.6-
    101128 H21  0.2+  1.1-    101202 H10  0.1-  0.0     110105 H21  0.0   1.0-
    101128 H21  0.1-  0.7-    101202 H10  0.4-  0.3-    110105 H21  0.5-  0.9-
    101128 H21  0.1-  0.3+    101202 448  0.4+  0.1-    111108 807  0.1-  0.3-
    101128 H21  0.7+  0.4-    101202 448  0.3-  0.0     111108 807  0.1-  0.3+
    101128 854  0.8+  1.1-    101202 448  0.2+  0.5-    111108 807  0.1-  0.0
    101128 854  0.7+  0.4-    101203 704 (0.3+  1.6+)   111110 807  0.1+  0.2+
    101129 204  0.0   0.0     101203 704  0.3-  1.2+    111110 807  0.1+  0.0
    101129 204  0.0   0.1+    101203 704  0.2+  0.4+
    
    Ephemeris:
    2010 WG3                 a,e,i = 1.01, 0.15, 13                  q = 0.8601
    Date    TT    R. A. (2000) Decl.     Delta      r     Elong.  Phase     V
    2011 10 11    07 33 11.0 -57 05 24   0.1899  0.9844    80.3    88.8    22.1
    ...
    2011 10 26    06 06 20.7 -53 20 55   0.1529  1.0221    96.2    75.3    21.2
    ...
    2011 11 03    05 09 38.8 -47 50 44   0.1340  1.0414   108.0    65.0    20.6
    ...
    2011 11 09    04 25 35.3 -40 48 37   0.1228  1.0553   118.8    55.4    20.2
    2011 11 10    04 18 25.8 -39 21 21   0.1214  1.0576   120.7    53.6    20.1
    2011 11 11    04 11 22.6 -37 49 16   0.1201  1.0598   122.6    51.9    20.0
    ...
    2011 11 17    03 32 05.9 -27 08 02   0.1161  1.0728   134.1    41.5    19.7
    ...
    2011 11 25    02 50 42.0 -11 01 24   0.1228  1.0890   144.0    32.2    19.6
    ...
    2011 12 10    02 08 54.7 +12 42 07   0.1700  1.1153   137.0    37.0    20.5
    
    A. U. Tomatic                (C) Copyright 2011 MPC           M.P.E.C. 2011-V35
    

    Read MPEC 2011-V34 Read MPEC 2011-V36


    MPEC number:

    Enter an MPEC number in one of the following forms:

    • 1997-B01 (the full form)
    • J97B01 (the packed version of the full form)
    • B01 (the abbreviated form)